Regional Weather Roundup
Issued by NWS

Home | Current Version | Previous Version | Graphics & Text | Print | Product List | Glossary On
Versions: 1 2 3 4 5 6 7 8 9 10 11 12 13 14 15 16 17 18 19 20 21 22 23 24 25 26 27 28 29 30 31 32 33 34 35 36 37 38 39 40 41 42 43 44 45 46 47 48 49 50
000
ASUS45 KSLC 051410
RWRUT

UTAH REGIONAL WEATHER ROUNDUP
NATIONAL WEATHER SERVICE SALT LAKE CITY UT
800 AM MDT SUN JUL 05 2015

UTZ001>011-023>025-051500-

NORTHERN UTAH

CITY           SKY/WX    TMP DP  RH WIND       PRES   REMARKS
BRIGHAM CITY   CLOUDY    69  62  77 N7        30.05R
HILL AFB       LGT RAIN  71  61  70 W6        30.06R
LOGAN          LGT RAIN  68  63  84 NW6       30.05R
OGDEN          LGT RAIN  70  64  81 N7        30.04R
PROVO AIRPORT  CLOUDY    68  57  68 NE8       30.06R
SALT LAKE CITY CLOUDY    76  62  62 NW6       30.02R
VERNAL         CLOUDY    68  58  70 CALM      30.11R
WENDOVER       CLOUDY    77  52  41 E18G24    30.02R
HEBER CITY     CLOUDY    66  55  68 CALM      30.11S
WEST JORDAN    PTSUNNY   75  55  50 SW5       30.05R

$$

UTZ012>022-026-027-051500-

SOUTHERN/CENTRAL UTAH

CITY           SKY/WX    TMP DP  RH WIND       PRES   REMARKS
BLANDING       CLOUDY    63  60  89 CALM      30.26R
BRYCE CANYON   MOSUNNY   61  52  72 CALM      30.30R
CEDAR CITY     SUNNY     71  46  40 SE7       30.15R
DELTA          CLOUDY    73  53  49 CALM      30.05R
HANKSVILLE     CLOUDY    66  63  88 CALM      30.11S
MILFORD        MOSUNNY   72  48  42 S14       30.08R
MOAB/CYNLANDS  MOSUNNY   68  62  81 CALM      30.09R
PRICE          CLOUDY    65  56  72 CALM      30.16S
ST GEORGE      CLOUDY    81  46  30 E8        29.99R
KANAB          SUNNY     66  54  63 CALM      30.18R

$$

REGIONAL REPORTS     COLORADO/ARIZONA

CITY           SKY/WX    TMP DP  RH WIND       PRES   REMARKS
CRAIG, CO      CLOUDY    62  55  77 E5        30.19R
GRAND JUNCTION CLOUDY    66  62  87 N3        30.12S
RIFLE          CLOUDY    65  58  78 NE6       30.15S
MONTROSE       PTSUNNY   67  58  72 N6        30.19R
CORTEZ         CLOUDY    65  57  75 CALM      30.19S
PAGE, AZ       MOSUNNY   78  53  41 CALM      30.06R
GRAND CANYON   MOSUNNY   65  55  70 CALM      30.27R
KINGMAN        MOSUNNY   83  51  33 E6        30.03R
FLAGSTAFF      CLOUDY    59  57  93 W3        30.31R

$$

REGIONAL REPORTS    NEVADA/IDAHO/WYOMING

CITY           SKY/WX    TMP DP  RH WIND       PRES   REMARKS
LAS VEGAS, NV  MOSUNNY   89  47  23 S10       29.86R
ELY            SUNNY     59  47  64 S7        30.19R
ELKO           CLOUDY    66  55  67 W13       30.11R
POCATELLO, ID  CLOUDY    75  51  43 S10       29.99R
BURLEY         CLOUDY    72  53  51 S20G26    29.97R
EVANSTON, WY   LGT RAIN  59  54  83 NW7       30.21R
ROCK SPRINGS   CLOUDY    68  49  50 SW12      30.12F
KEMMERER       DRIZZLE   61  52  72 SW3       30.21R

$$


USA.gov is the U.S. government's official web portal to all federal, state and local government web resources and services.